This demonstration page uses our WeatherBlox Daily Observations layout. Learn more.

Hourly Observations for January 1, 2015

Temp ( °F °C ) Dew Point ( °F °C ) Humidity (%) Winds ( mph kmh ) Pressure ( in mb ) Visibility ( mi km ) Precip ( " mm )
12:15 am 00:15 Clear 8 -13.5 -1 -18.1 69 69 W 6 9 30.42 1030 10 16.0934 0 0
12:35 am 00:35 Clear 10 -12.1 0 -17.8 63 63 W 6 9 30.39 1029 10 16.0934 0 0
12:55 am 00:55 Clear 10 -12 1 -17.5 64 64 W 6 9 30.39 1029 10 16.0934 0 0
1:15 am 01:15 Clear 11 -11.9 1 -17.5 63 63 W 5 7 30.39 1029 10 16.0934 0 0
1:35 am 01:35 Clear 11 -11.8 1 -17.5 63 63 W 7 11 30.39 1029 10 16.0934 0 0
1:55 am 01:55 Clear 9 -12.7 0 -17.8 66 66 W 5 7 30.36 1028 10 16.0934 0 0
2:15 am 02:15 Clear 9 -13 0 -17.9 67 67 WNW 6 9 30.36 1028 10 16.0934 0 0
2:35 am 02:35 Clear 8 -13.3 0 -17.9 69 69 W 5 7 30.36 1028 10 16.0934 0 0
2:55 am 02:55 Clear 9 -12.7 1 -17.4 68 68 WNW 5 7 30.36 1028 10 16.0934 0 0
3:15 am 03:15 Clear 8 -13.5 0 -17.6 72 72 W 5 7 30.36 1028 10 16.0934 0 0
3:35 am 03:35 Clear 8 -13.2 1 -17.5 70 70 W 3 6 30.36 1028 10 16.0934 0 0
3:55 am 03:55 Clear 8 -13.5 1 -17.5 72 72 W 6 9 30.36 1028 10 16.0934 0 0
4:15 am 04:15 Clear 7 -14 0 -17.9 73 73 W 7 11 30.39 1029 10 16.0934 0 0
4:35 am 04:35 Clear 6 -14.4 -1 -18.3 73 73 W 6 9 30.39 1029 10 16.0934 0 0
4:55 am 04:55 Clear 6 -14.7 -1 -18.5 73 73 W 5 7 30.39 1029 10 16.0934 0 0
5:15 am 05:15 Clear 7 -14 0 -18 72 72 WSW 5 7 30.39 1029 10 16.0934 0 0
5:35 am 05:35 Clear 7 -13.8 0 -17.9 71 71 W 5 7 30.39 1029 10 16.0934 0 0
5:55 am 05:55 Clear 8 -13.5 0 -17.6 72 72 W 3 6 30.36 1028 10 16.0934 0 0
6:15 am 06:15 Clear 8 -13.5 1 -17.5 72 72 W 5 7 30.36 1028 10 16.0934 0 0
6:35 am 06:35 Clear 8 -13.5 1 -17.3 73 73 SW 5 7 30.33 1027 10 16.0934 0 0
6:55 am 06:55 Clear 8 -13.4 1 -17.2 73 73 W 3 6 30.33 1027 10 16.0934 0 0
7:15 am 07:15 Clear 8 -13.1 1 -17.4 70 70 W 3 6 30.33 1027 10 16.0934 0 0
7:35 am 07:35 Clear 7 -14 0 -17.8 73 73 W 5 7 30.33 1027 10 16.0934 0 0
7:55 am 07:55 Clear 8 -13.6 1 -17.5 73 73 WNW 3 6 30.33 1027 10 16.0934 0 0
8:15 am 08:15 Sunny 7 -14 0 -18 72 72 W 3 6 30.33 1027 10 16.0934 0 0
8:35 am 08:35 Sunny 8 -13.6 1 -17.5 73 73 W 5 7 30.33 1027 10 16.0934 0 0
8:55 am 08:55 Sunny 9 -13 2 -16.9 73 73 WNW 6 9 30.33 1027 10 16.0934 0 0
9:15 am 09:15 Sunny 8 -13.2 1 -17.1 73 73 W 5 7 30.36 1028 10 16.0934 0 0
9:35 am 09:35 Sunny 10 -12 3 -16 72 72 Calm 30.33 1027 10 16.0934 0 0
9:55 am 09:55 Sunny 10 -12.3 3 -16.2 73 73 Calm 30.36 1028 10 16.0934 0 0
10:15 am 10:15 Sunny 12 -11 4 -15.5 70 70 W 3 6 30.33 1027 10 16.0934 0 0
10:35 am 10:35 Sunny 13 -10.8 5 -15.2 70 70 Calm 30.33 1027 10 16.0934 0 0
10:55 am 10:55 Sunny 13 -10.5 5 -15 70 70 SW 7 11 30.33 1027 10 16.0934 0 0
11:15 am 11:15 Sunny 14 -10.2 6 -14.5 71 71 SW 6 9 30.3 1026 10 16.0934 0 0
11:35 am 11:35 Sunny 15 -9.3 7 -13.9 70 70 Calm 30.3 1026 10 16.0934 0 0
11:55 am 11:55 Sunny 17 -8.3 8 -13.6 66 66 W 5 7 30.24 1024 10 16.0934 0 0
12:15 pm 12:15 Sunny 19 -7.1 10 -12.5 66 66 Calm 30.24 1024 10 16.0934 0 0
12:35 pm 12:35 Sunny 22 -5.4 11 -11.6 62 62 WNW 3 6 30.21 1023 10 16.0934 0 0
12:55 pm 12:55 Sunny 22 -5.4 12 -11.1 65 65 W 5 7 30.21 1023 10 16.0934 0 0
1:15 pm 13:15 Sunny 24 -4.4 14 -9.9 66 66 W 5 7 30.18 1022 10 16.0934 0 0
1:35 pm 13:35 Sunny 26 -3.4 15 -9.2 65 65 Calm 30.15 1021 10 16.0934 0 0
1:55 pm 13:55 Sunny 27 -2.6 17 -8.6 64 64 SW 7 11 30.15 1021 10 16.0934 0 0
2:15 pm 14:15 Sunny 25 -3.8 16 -9.1 67 67 SW 6 9 30.18 1022 10 16.0934 0 0
2:35 pm 14:35 Sunny 26 -3.1 17 -8.6 66 66 W 7 11 30.15 1021 10 16.0934 0 0
2:55 pm 14:55 Sunny 27 -2.9 17 -8.6 65 65 SW 5 7 30.15 1021 10 16.0934 0 0
3:15 pm 15:15 Sunny 27 -3 16 -8.8 65 65 WSW 3 6 30.15 1021 10 16.0934 0 0
3:35 pm 15:35 Sunny 25 -3.7 16 -9.1 67 67 WSW 6 9 30.18 1022 10 16.0934 0 0
3:55 pm 15:55 Partly Cloudy 25 -4.1 15 -9.2 68 68 WSW 5 7 30.18 1022 10 16.0934 0 0
4:15 pm 16:15 Cloudy 24 -4.5 16 -9.1 71 71 SW 7 11 30.18 1022 10 16.0934 0 0
4:35 pm 16:35 Cloudy 24 -4.2 16 -9 70 70 SW 6 9 30.21 1023 10 16.0934 0 0
4:55 pm 16:55 Cloudy 24 -4.2 16 -9.1 69 69 SW 5 7 30.21 1023 10 16.0934 0 0
5:15 pm 17:15 Cloudy 25 -4.1 16 -8.7 71 71 SW 6 9 30.21 1023 10 16.0934 0 0
5:35 pm 17:35 Cloudy 24 -4.6 16 -9.1 71 71 WSW 5 7 30.21 1023 10 16.0934 0 0
5:55 pm 17:55 Cloudy 23 -4.8 15 -9.3 71 71 WSW 5 7 30.21 1023 10 16.0934 0 0
6:15 pm 18:15 Mostly Cloudy 23 -4.8 15 -9.5 70 70 W 5 7 30.21 1023 10 16.0934 0 0
6:35 pm 18:35 Partly Cloudy 22 -5.6 15 -9.7 73 73 WSW 5 7 30.24 1024 10 16.0934 0 0
6:55 pm 18:55 Partly Cloudy 22 -5.8 14 -10 73 73 WNW 3 6 30.24 1024 10 16.0934 0 0
7:15 pm 19:15 Clear 21 -6.1 14 -10 74 74 Calm 30.24 1024 10 16.0934 0 0
7:35 pm 19:35 Clear 17 -8.5 11 -11.5 79 79 WSW 3 6 30.24 1024 10 16.0934 0 0
7:55 pm 19:55 Clear 19 -7.2 13 -10.3 79 79 W 5 7 30.27 1025 10 16.0934 0 0
8:15 pm 20:15 Clear 19 -7.5 13 -10.6 79 79 W 3 6 30.27 1025 10 16.0934 0 0
8:35 pm 20:35 Clear 19 -7.5 13 -10.6 79 79 Calm 30.27 1025 10 16.0934 0 0
8:55 pm 20:55 Clear 18 -7.6 13 -10.5 80 80 Calm 30.27 1025 10 16.0934 0 0
9:15 pm 21:15 Clear 16 -8.8 12 -11.1 84 84 Calm 30.3 1026 10 16.0934 0 0
9:35 pm 21:35 Clear 14 -9.9 10 -12.2 83 83 WNW 5 7 30.3 1026 10 16.0934 0 0
9:55 pm 21:55 Clear 15 -9.6 10 -12 83 83 WNW 5 7 30.3 1026 10 16.0934 0 0
10:15 pm 22:15 Clear 15 -9.5 11 -11.6 85 85 WNW 6 9 30.3 1026 10 16.0934 0 0
10:35 pm 22:35 Clear 14 -10.1 10 -12.1 85 85 WNW 5 7 30.3 1026 10 16.0934 0 0
10:55 pm 22:55 Clear 15 -9.7 11 -11.7 86 86 W 3 6 30.3 1026 10 16.0934 0 0
11:15 pm 23:15 Clear 15 -9.2 12 -11.3 85 85 WNW 5 7 30.3 1026 10 16.0934 0 0
11:35 pm 23:35 Clear 14 -9.8 11 -11.8 86 86 NW 6 9 30.3 1026 10 16.0934 0 0
11:55 pm 23:55 Clear 15 -9.3 11 -11.4 85 85 NNW 3 6 30.3 1026 10 16.0934 0 0

Powered by AerisWeather